When you browse on this site, cookies collect data to enhance your experience and personalize the content and advertising you see.
Visit our Privacy Policy to learn more. By continuing to use the site, you agree to this use of cookies and data.
  • En España
  • Lista de países
  • Para 7 días
  • Temperatura del agua
  • El tiempo en el mapa
  • Informadores
  • user-avatar
    Iniciar sesión

    Tiempo cada hora Panguipulli

    Hoy, 4 Abril, Sábado

    Tiempo Temperatura Precipitaciones Viento Presión Humedad
    00:00 +12°C° 0 mm 1 mps 743 mmHg 94%
    01:00 +12°C° 0 mm 1 mps 743 mmHg 94%
    02:00 +11°C° 0 mm 1 mps 743 mmHg 95%
    03:00 +9°C° 0 mm 1 mps 743 mmHg 95%
    04:00 +8°C° 0 mm 1 mps 743 mmHg 96%
    05:00 +8°C° 0 mm 1 mps 743 mmHg 95%
    06:00 +8°C° 0 mm 1 mps 743 mmHg 94%
    07:00 +7°C° 0 mm 1 mps 743 mmHg 93%
    08:00 +10°C° 0 mm 1 mps 743 mmHg 79%
    09:00 +12°C° 0 mm 1 mps 742 mmHg 64%
    10:00 +15°C° 0 mm 1 mps 742 mmHg 50%
    11:00 +16°C° 0 mm 2 mps 742 mmHg 46%
    12:00 +17°C° 0 mm 2 mps 741 mmHg 43%
    13:00 +19°C° 0 mm 2 mps 741 mmHg 40%
    14:00 +18°C° 0 mm 2 mps 740 mmHg 42%
    15:00 +18°C° 0 mm 2 mps 740 mmHg 44%
    16:00 +17°C° 0 mm 2 mps 740 mmHg 45%
    17:00 +15°C° 0 mm 2 mps 740 mmHg 56%
    18:00 +12°C° 0 mm 1 mps 741 mmHg 66%
    19:00 +9°C° 0 mm 1 mps 741 mmHg 77%
    20:00 +8°C° 0 mm 0 mps 742 mmHg 81%
    21:00 +7°C° 0 mm 0 mps 742 mmHg 84%
    22:00 +6°C° 0 mm 0 mps 743 mmHg 88%
    23:00 +5°C° 0 mm 0 mps 743 mmHg 90%

    Mañana, 5 Abril, Domingo

    Tiempo Temperatura Precipitaciones Viento Presión Humedad
    00:00 +5°C° 0 mm 0 mps 743 mmHg 93%
    01:00 +4°C° 0 mm 0 mps 743 mmHg 96%
    02:00 +4°C° 0 mm 0 mps 743 mmHg 96%
    03:00 +4°C° 0 mm 0 mps 743 mmHg 97%
    04:00 +4°C° 0 mm 0 mps 744 mmHg 97%
    05:00 +4°C° 0 mm 0 mps 744 mmHg 95%
    06:00 +5°C° 0 mm 0 mps 744 mmHg 92%
    07:00 +5°C° 0 mm 0 mps 744 mmHg 90%
    08:00 +8°C° 0 mm 1 mps 745 mmHg 82%
    09:00 +10°C° 0 mm 1 mps 745 mmHg 74%
    10:00 +12°C° 0 mm 1 mps 745 mmHg 65%
    11:00 +13°C° 0 mm 1 mps 745 mmHg 66%
    12:00 +14°C° 0 mm 1 mps 745 mmHg 67%
    13:00 +15°C° 0 mm 1 mps 746 mmHg 68%
    14:00 +14°C° 0.1 mm 1 mps 746 mmHg 72%
    15:00 +14°C° 0.1 mm 1 mps 746 mmHg 76%
    16:00 +14°C° 0.1 mm 1 mps 746 mmHg 79%
    17:00 +13°C° 0.1 mm 1 mps 747 mmHg 84%
    18:00 +11°C° 0.1 mm 1 mps 748 mmHg 89%
    19:00 +9°C° 0.1 mm 0 mps 748 mmHg 94%
    20:00 +9°C° 0 mm 1 mps 749 mmHg 95%
    21:00 +8°C° 0 mm 1 mps 749 mmHg 96%
    22:00 +7°C° 0 mm 1 mps 750 mmHg 97%
    23:00 +6°C° 0 mm 1 mps 750 mmHg 97%

    Pasado mañana, 6 Abril, Lunes

    Tiempo Temperatura Precipitaciones Viento Presión Humedad
    00:00 +6°C° 0 mm 1 mps 750 mmHg 97%
    01:00 +5°C° 0 mm 1 mps 750 mmHg 97%
    02:00 +5°C° 0 mm 1 mps 750 mmHg 96%
    03:00 +4°C° 0 mm 1 mps 750 mmHg 96%
    04:00 +4°C° 0 mm 1 mps 750 mmHg 95%
    05:00 +4°C° 0 mm 1 mps 750 mmHg 94%
    06:00 +4°C° 0 mm 1 mps 750 mmHg 93%
    07:00 +4°C° 0 mm 1 mps 749 mmHg 92%
    08:00 +8°C° 0 mm 1 mps 749 mmHg 78%
    09:00 +11°C° 0 mm 1 mps 749 mmHg 65%
    10:00 +14°C° 0 mm 1 mps 749 mmHg 51%
    11:00 +15°C° 0 mm 1 mps 748 mmHg 46%
    12:00 +18°C° 0 mm 1 mps 748 mmHg 42%
    13:00 +19°C° 0 mm 2 mps 747 mmHg 37%
    14:00 +18°C° 0 mm 2 mps 747 mmHg 40%
    15:00 +18°C° 0 mm 2 mps 747 mmHg 42%
    16:00 +17°C° 0 mm 2 mps 746 mmHg 44%
    17:00 +15°C° 0 mm 1 mps 746 mmHg 55%
    18:00 +12°C° 0 mm 1 mps 747 mmHg 66%
    19:00 +9°C° 0 mm 1 mps 747 mmHg 77%
    20:00 +8°C° 0 mm 1 mps 747 mmHg 80%
    21:00 +7°C° 0 mm 1 mps 747 mmHg 83%
    22:00 +7°C° 0 mm 1 mps 747 mmHg 86%
    23:00 +7°C° 0 mm 1 mps 747 mmHg 86%

    7 Abril, Martes

    Tiempo Temperatura Precipitaciones Viento Presión Humedad
    00:00 +6°C° 0 mm 1 mps 747 mmHg 86%
    01:00 +6°C° 0 mm 1 mps 747 mmHg 86%
    02:00 +6°C° 0 mm 1 mps 747 mmHg 85%
    03:00 +6°C° 0 mm 1 mps 746 mmHg 85%
    04:00 +6°C° 0 mm 1 mps 746 mmHg 84%
    05:00 +6°C° 0 mm 1 mps 746 mmHg 82%
    06:00 +7°C° 0 mm 1 mps 746 mmHg 80%
    07:00 +7°C° 0 mm 1 mps 746 mmHg 78%
    08:00 +10°C° 0 mm 1 mps 746 mmHg 68%
    09:00 +13°C° 0 mm 1 mps 746 mmHg 57%
    10:00 +18°C° 0 mm 1 mps 745 mmHg 46%
    11:00 +19°C° 0 mm 1 mps 745 mmHg 43%
    12:00 +21°C° 0 mm 1 mps 745 mmHg 39%
    13:00 +23°C° 0 mm 1 mps 745 mmHg 36%
    14:00 +23°C° 0 mm 1 mps 744 mmHg 39%
    15:00 +22°C° 0 mm 1 mps 744 mmHg 42%
    16:00 +22°C° 0 mm 1 mps 744 mmHg 45%
    17:00 +19°C° 0 mm 1 mps 744 mmHg 53%
    18:00 +15°C° 0 mm 1 mps 744 mmHg 61%
    19:00 +13°C° 0 mm 1 mps 744 mmHg 69%
    20:00 +12°C° 0 mm 1 mps 744 mmHg 70%
    21:00 +11°C° 0 mm 1 mps 744 mmHg 71%
    22:00 +10°C° 0 mm 1 mps 744 mmHg 72%
    23:00 +10°C° 0 mm 1 mps 744 mmHg 71%

    8 Abril, Miércoles

    Tiempo Temperatura Precipitaciones Viento Presión Humedad
    00:00 +10°C° 0 mm 1 mps 744 mmHg 70%
    01:00 +10°C° 0 mm 1 mps 744 mmHg 69%
    02:00 +10°C° 0 mm 1 mps 744 mmHg 68%
    03:00 +10°C° 0 mm 1 mps 744 mmHg 67%
    04:00 +10°C° 0 mm 1 mps 743 mmHg 66%
    05:00 +10°C° 0 mm 1 mps 743 mmHg 65%
    06:00 +10°C° 0 mm 1 mps 743 mmHg 64%
    07:00 +11°C° 0 mm 1 mps 744 mmHg 63%
    08:00 +15°C° 0 mm 1 mps 743 mmHg 53%
    09:00 +20°C° 0 mm 1 mps 743 mmHg 44%
    10:00 +24°C° 0 mm 1 mps 743 mmHg 34%
    11:00 +26°C° 0 mm 1 mps 742 mmHg 30%
    12:00 +26°C° 0 mm 0 mps 742 mmHg 27%
    13:00 +28°C° 0 mm 0 mps 742 mmHg 23%
    14:00 +28°C° 0 mm 0 mps 741 mmHg 27%
    15:00 +27°C° 0 mm 0 mps 741 mmHg 31%
    16:00 +26°C° 0 mm 0 mps 741 mmHg 35%
    17:00 +23°C° 0 mm 0 mps 741 mmHg 43%
    18:00 +21°C° 0 mm 1 mps 741 mmHg 52%
    19:00 +18°C° 0 mm 1 mps 741 mmHg 60%
    20:00 +16°C° 0 mm 1 mps 742 mmHg 61%
    21:00 +16°C° 0 mm 1 mps 742 mmHg 62%
    22:00 +15°C° 0 mm 1 mps 742 mmHg 63%
    23:00 +14°C° 0 mm 1 mps 742 mmHg 64%

    9 Abril, Jueves

    Tiempo Temperatura Precipitaciones Viento Presión Humedad
    00:00 +14°C° 0 mm 1 mps 742 mmHg 64%
    01:00 +14°C° 0 mm 1 mps 742 mmHg 65%
    02:00 +13°C° 0 mm 1 mps 742 mmHg 65%
    03:00 +13°C° 0 mm 1 mps 742 mmHg 65%
    04:00 +13°C° 0 mm 1 mps 742 mmHg 66%
    05:00 +13°C° 0 mm 1 mps 742 mmHg 64%
    06:00 +13°C° 0 mm 1 mps 742 mmHg 63%
    07:00 +13°C° 0 mm 1 mps 742 mmHg 62%
    08:00 +16°C° 0 mm 1 mps 742 mmHg 52%
    09:00 +21°C° 0 mm 1 mps 742 mmHg 42%
    10:00 +24°C° 0 mm 1 mps 742 mmHg 32%
    11:00 +25°C° 0 mm 1 mps 742 mmHg 30%
    12:00 +26°C° 0 mm 1 mps 742 mmHg 28%
    13:00 +27°C° 0 mm 2 mps 742 mmHg 26%
    14:00 +26°C° 0 mm 2 mps 742 mmHg 31%
    15:00 +24°C° 0 mm 2 mps 742 mmHg 37%
    16:00 +23°C° 0 mm 2 mps 742 mmHg 43%
    17:00 +20°C° 0 mm 1 mps 743 mmHg 60%
    18:00 +16°C° 0 mm 1 mps 743 mmHg 77%
    19:00 +11°C° 0 mm 0 mps 743 mmHg 93%
    20:00 +11°C° 0 mm 0 mps 744 mmHg 94%
    21:00 +11°C° 0 mm 0 mps 744 mmHg 95%
    22:00 +10°C° 0 mm 0 mps 744 mmHg 96%
    23:00 +10°C° 0 mm 0 mps 744 mmHg 97%
    Mostrar más